�N����,����,�~����,�C��,���x,�C��,����,���ϕ���,�ő�u�ԕ���,�ő厞����,���˗�,�I�_���x,�n�����x,�ő啗���N��,DTYPE
"23/10/26","00:10",0.0,11.9,93.3,1010.9,310.5,1.6,2.4,325.8,0.00,10.9,16.2,"00:06:00",1
"23/10/26","00:20",0.0,11.4,93.4,1010.9,287.9,1.5,2.0,307.3,0.00,10.4,16.2,"00:17:08",1
"23/10/26","00:30",0.0,11.3,93.7,1010.7,304.2,1.5,2.2,317.7,0.00,10.4,16.0,"00:28:18",1
"23/10/26","00:40",0.0,11.3,94.1,1011.2,314.9,1.6,2.4,322.8,0.00,10.4,16.1,"00:35:00",1
"23/10/26","00:50",0.0,11.3,94.1,1010.9,310.4,1.8,2.6,321.6,0.00,10.4,16.2,"00:43:06",1
"23/10/26","01:00",0.0,10.8,94.2,1010.9,298.9,1.3,2.0,311.6,0.00,9.9,16.0,"00:53:54",1
"23/10/26","01:10",0.0,11.1,94.6,1010.9,310.1,2.0,2.6,310.6,0.00,10.3,16.0,"01:06:02",1
"23/10/26","01:20",0.0,11.2,94.6,1010.7,304.0,1.6,2.2,313.0,0.00,10.4,16.1,"01:10:16",1
"23/10/26","01:30",0.0,11.3,94.7,1010.4,305.1,2.0,2.9,326.3,0.00,10.5,16.0,"01:25:06",1
"23/10/26","01:40",0.0,11.3,94.9,1010.4,312.1,2.0,2.5,313.6,0.00,10.6,15.8,"01:36:26",1
"23/10/26","01:50",0.0,11.0,95.0,1010.4,307.3,1.2,2.5,318.4,0.00,10.3,15.7,"01:49:42",1
"23/10/26","02:00",0.0,10.8,95.3,1010.2,302.1,2.0,2.4,316.8,0.00,10.1,15.7,"01:55:52",1
"23/10/26","02:10",0.0,11.0,95.4,1010.2,297.5,1.7,2.4,310.4,0.00,10.3,15.7,"02:04:42",1
"23/10/26","02:20",0.0,10.8,95.5,1010.2,298.2,0.7,1.6,294.5,0.00,10.2,15.8,"02:11:20",1
"23/10/26","02:30",0.0,10.6,95.8,1010.4,321.4,2.0,2.4,328.0,0.00,10.0,15.5,"02:25:38",1
"23/10/26","02:40",0.0,10.5,95.9,1010.2,318.5,2.2,3.1,328.9,0.00,9.9,15.8,"02:35:54",1
"23/10/26","02:50",0.0,10.4,96.0,1010.2,302.0,1.3,2.0,323.5,0.00,9.8,15.7,"02:40:08",1
"23/10/26","03:00",0.0,10.2,96.2,1010.4,296.2,0.7,1.4,309.3,0.00,9.7,15.5,"02:58:06",1
"23/10/26","03:10",0.0,10.2,96.3,1010.2,302.9,1.5,2.4,312.1,0.00,9.7,15.5,"03:03:14",1
"23/10/26","03:20",0.0,10.3,96.4,1010.2,307.1,1.8,2.4,309.1,0.00,9.8,15.5,"03:17:32",1
"23/10/26","03:30",0.0,10.5,96.5,1010.0,325.0,2.0,2.6,315.8,0.00,10.0,15.5,"03:28:16",1
"23/10/26","03:40",0.0,10.6,96.6,1010.4,319.0,2.0,2.9,318.9,0.00,10.1,15.6,"03:32:38",1
"23/10/26","03:50",0.0,11.0,96.7,1010.4,313.8,1.7,3.2,307.8,0.00,10.5,15.3,"03:46:42",1
"23/10/26","04:00",0.0,10.9,96.7,1010.7,327.7,1.7,2.9,334.4,0.00,10.4,15.3,"03:54:46",1
"23/10/26","04:10",0.0,11.2,96.8,1010.4,307.7,1.7,3.6,317.0,0.00,10.8,15.4,"04:06:30",1
"23/10/26","04:20",0.0,11.2,96.8,1010.4,300.6,1.5,2.1,340.8,0.00,10.8,15.5,"04:16:30",1
"23/10/26","04:30",0.0,11.2,96.9,1010.7,325.6,1.5,2.5,326.6,0.00,10.8,15.2,"04:20:08",1
"23/10/26","04:40",0.0,11.1,97.0,1010.7,318.4,1.6,2.1,326.4,0.00,10.7,15.2,"04:32:42",1
"23/10/26","04:50",0.0,10.8,96.8,1010.9,296.9,1.2,2.2,315.4,0.00,10.4,15.1,"04:45:30",1
"23/10/26","05:00",0.0,10.8,97.3,1010.9,304.4,1.5,2.5,327.8,0.00,10.4,15.4,"04:59:22",1
"23/10/26","05:10",0.0,10.8,97.2,1010.9,330.8,1.5,2.4,323.2,0.00,10.4,15.4,"05:01:10",1
"23/10/26","05:20",0.0,10.7,97.3,1010.9,305.0,1.2,2.1,297.0,0.00,10.3,15.4,"05:15:50",1
"23/10/26","05:30",0.0,10.4,97.4,1011.2,312.8,1.1,2.0,319.9,0.00,10.0,15.3,"05:25:50",1
"23/10/26","05:40",0.0,10.4,97.6,1011.4,311.4,1.3,3.3,325.4,0.00,10.1,15.4,"05:37:44",1
"23/10/26","05:50",0.0,10.7,97.5,1011.2,323.0,2.0,3.1,333.6,0.00,10.4,15.1,"05:45:52",1
"23/10/26","06:00",0.0,10.5,97.6,1011.2,310.1,1.6,2.6,325.7,0.00,10.2,15.3,"05:58:32",1
"23/10/26","06:10",0.0,10.4,97.6,1011.2,320.9,2.0,2.5,307.4,0.00,10.1,15.2,"06:08:14",1
"23/10/26","06:20",0.0,9.8,97.8,1011.2,291.0,1.5,2.4,319.8,0.00,9.5,15.1,"06:19:20",1
"23/10/26","06:30",0.2,10.0,97.9,1010.9,312.1,1.8,2.4,320.5,0.00,9.7,15.2,"06:21:52",1
"23/10/26","06:40",0.0,9.9,98.0,1010.9,312.2,1.7,2.4,319.5,0.00,9.6,15.2,"06:34:32",1
"23/10/26","06:50",0.0,9.9,97.5,1010.9,292.2,0.8,1.7,313.8,0.00,9.6,15.2,"06:41:12",1
"23/10/26","07:00",0.0,10.3,98.1,1011.2,286.3,0.8,1.4,270.5,0.00,10.1,14.9,"06:50:56",1
"23/10/26","07:10",0.0,11.2,97.5,1011.2,304.0,1.5,2.5,322.3,0.01,10.9,15.0,"07:08:08",1
"23/10/26","07:20",0.0,11.5,97.9,1011.4,335.4,1.6,2.7,335.3,0.02,11.2,15.2,"07:14:16",1
"23/10/26","07:30",0.0,12.1,97.9,1011.6,335.2,1.2,1.9,339.5,0.03,11.8,14.9,"07:25:28",1
"23/10/26","07:40",0.0,12.6,97.7,1011.6,323.6,1.7,3.5,340.2,0.05,12.3,15.0,"07:35:28",1
"23/10/26","07:50",0.0,12.9,97.6,1011.6,308.6,1.6,3.2,326.8,0.06,12.6,15.1,"07:42:16",1
"23/10/26","08:00",0.0,13.2,97.3,1012.1,311.2,1.8,3.5,355.5,0.08,12.8,14.8,"07:56:48",1
"23/10/26","08:10",0.0,13.9,97.0,1012.1,282.2,1.2,2.8,239.3,0.10,13.5,15.1,"08:07:28",1
"23/10/26","08:20",0.0,14.1,96.7,1011.9,273.3,1.5,3.3,236.5,0.12,13.6,15.0,"08:12:32",1
"23/10/26","08:30",0.0,14.3,96.2,1012.1,257.2,1.2,2.6,240.1,0.14,13.7,15.0,"08:29:04",1
"23/10/26","08:40",0.0,14.6,95.7,1011.9,230.9,1.1,2.0,240.8,0.16,14.0,15.2,"08:30:32",1
"23/10/26","08:50",0.0,15.4,95.2,1011.9,243.6,0.7,1.2,200.7,0.19,14.7,15.1,"08:40:08",1
"23/10/26","09:00",0.0,15.5,94.3,1011.4,266.2,1.0,1.9,226.9,0.21,14.6,14.9,"08:56:56",1
"23/10/26","09:10",0.0,16.1,93.1,1011.6,261.6,1.0,1.7,211.5,0.23,15.0,15.2,"09:01:52",1
"23/10/26","09:20",0.0,16.8,90.7,1011.4,228.9,0.6,1.4,235.3,0.25,15.3,15.2,"09:10:24",1
"23/10/26","09:30",0.0,17.0,87.5,1011.6,207.0,1.1,2.4,220.8,0.27,15.0,15.4,"09:21:20",1
"23/10/26","09:40",0.0,17.6,84.6,1011.9,229.7,0.8,2.2,226.6,0.29,15.0,15.4,"09:36:48",1
"23/10/26","09:50",0.0,18.3,82.1,1011.6,196.3,0.7,1.9,201.3,0.31,15.2,15.4,"09:43:52",1
"23/10/26","10:00",0.0,18.7,79.1,1011.4,167.2,0.6,1.7,169.6,0.33,15.0,15.6,"09:59:44",1
"23/10/26","10:10",0.0,18.9,77.0,1010.9,180.7,0.7,1.6,94.2,0.34,14.8,15.5,"10:03:04",1
"23/10/26","10:20",0.0,19.4,75.8,1010.9,222.2,0.7,1.6,117.3,0.36,15.1,15.7,"10:14:56",1
"23/10/26","10:30",0.0,19.9,74.3,1010.7,305.7,1.1,2.6,318.2,0.36,15.2,15.7,"10:22:56",1
"23/10/26","10:40",0.0,20.3,72.0,1010.4,289.3,1.0,1.9,240.3,0.37,15.1,15.8,"10:38:56",1
"23/10/26","10:50",0.0,20.7,70.4,1010.2,235.5,0.7,2.2,203.2,0.38,15.2,15.7,"10:40:02",1
"23/10/26","11:00",0.0,21.1,69.4,1009.7,274.3,1.0,2.7,207.3,0.39,15.3,16.1,"10:52:24",1
"23/10/26","11:10",0.0,21.5,65.6,1009.5,233.9,0.7,3.4,236.8,0.39,14.8,16.2,"11:06:56",1
"23/10/26","11:20",0.0,21.7,63.3,1009.3,194.6,1.2,3.1,235.0,0.40,14.5,16.2,"11:18:40",1
"23/10/26","11:30",0.0,21.8,61.6,1008.8,225.3,1.7,4.2,240.4,0.40,14.1,16.3,"11:23:20",1
"23/10/26","11:40",0.0,22.1,61.7,1008.6,262.0,2.0,4.8,238.2,0.40,14.5,16.3,"11:34:32",1
"23/10/26","11:50",0.0,21.8,59.8,1008.3,238.0,2.2,4.1,216.8,0.40,13.7,16.4,"11:48:16",1
"23/10/26","12:00",0.0,22.2,60.2,1008.1,236.4,2.1,4.9,224.0,0.40,14.2,16.6,"11:58:00",1
"23/10/26","12:10",0.0,22.3,60.0,1007.8,251.9,2.1,4.9,235.6,0.40,14.2,16.7,"12:08:48",1
"23/10/26","12:20",0.0,22.2,59.7,1007.4,240.0,2.7,4.4,244.7,0.39,14.0,16.7,"12:17:44",1
"23/10/26","12:30",0.0,22.5,59.7,1007.4,242.9,2.1,3.9,210.3,0.39,14.3,16.8,"12:25:44",1
"23/10/26","12:40",0.0,22.8,60.4,1007.1,259.2,1.8,3.7,255.3,0.38,14.8,16.8,"12:30:32",1
"23/10/26","12:50",0.0,22.8,59.9,1006.9,241.8,2.1,5.2,212.3,0.37,14.7,16.8,"12:47:20",1
"23/10/26","13:00",0.0,23.4,60.6,1006.7,206.2,1.3,3.6,203.0,0.36,15.4,17.2,"12:50:08",1
"23/10/26","13:10",0.0,23.7,58.4,1006.7,243.8,1.8,3.6,239.4,0.35,15.1,17.2,"13:01:52",1
"23/10/26","13:20",0.0,23.9,56.5,1006.4,247.2,1.7,3.9,306.2,0.34,14.8,17.5,"13:15:52",1
"23/10/26","13:30",0.0,23.7,56.5,1006.4,263.9,2.2,5.1,231.3,0.33,14.6,17.3,"13:24:40",1
"23/10/26","13:40",0.0,23.8,54.6,1006.2,257.2,2.1,3.9,230.9,0.32,14.2,17.6,"13:34:00",1
"23/10/26","13:50",0.0,23.8,54.2,1006.0,259.3,2.3,5.5,244.2,0.30,14.0,17.7,"13:41:52",1
"23/10/26","14:00",0.0,24.0,52.7,1006.2,282.7,1.8,5.2,347.0,0.29,13.8,17.7,"13:54:16",1
"23/10/26","14:10",0.0,24.1,53.1,1006.2,283.5,1.8,3.7,332.7,0.27,14.0,17.9,"14:05:12",1
"23/10/26","14:20",0.0,23.9,51.3,1006.0,265.0,2.0,4.7,238.1,0.25,13.3,18.0,"14:12:08",1
"23/10/26","14:30",0.0,23.9,49.1,1006.2,260.7,2.2,5.4,241.8,0.24,12.6,17.8,"14:24:08",1
"23/10/26","14:40",0.0,23.9,48.2,1006.0,265.4,2.2,4.8,236.7,0.21,12.3,18.1,"14:33:52",1
"23/10/26","14:50",0.0,23.8,47.5,1006.2,270.9,2.1,5.0,234.6,0.18,12.0,17.8,"14:42:16",1
"23/10/26","15:00",0.0,23.7,46.0,1006.0,258.3,2.0,5.0,234.1,0.17,11.4,17.9,"14:50:56",1
"23/10/26","15:10",0.0,23.8,47.3,1006.2,280.1,1.8,5.0,240.8,0.15,12.0,17.9,"15:03:04",1
"23/10/26","15:20",0.0,23.8,46.2,1006.4,286.1,1.6,3.3,352.8,0.13,11.6,18.0,"15:10:32",1
"23/10/26","15:30",0.0,23.7,44.9,1006.7,297.8,1.3,2.8,357.4,0.11,11.1,18.1,"15:22:24",1
"23/10/26","15:40",0.0,23.5,43.4,1006.4,317.2,1.7,4.2,350.6,0.08,10.4,18.0,"15:37:12",1
"23/10/26","15:50",0.0,23.1,43.5,1006.4,324.9,2.1,5.9,338.9,0.06,10.1,17.9,"15:42:32",1
"23/10/26","16:00",0.0,22.9,44.6,1006.7,324.0,2.0,5.4,353.7,0.04,10.3,17.9,"15:57:12",1
"23/10/26","16:10",0.0,22.4,46.9,1006.7,317.4,1.6,4.0,326.5,0.02,10.6,17.8,"16:01:52",1
"23/10/26","16:20",0.0,22.0,49.0,1006.9,323.0,1.7,3.7,336.0,0.02,10.8,18.2,"16:11:20",1
"23/10/26","16:30",0.0,21.6,51.5,1006.9,324.9,1.3,2.7,338.8,0.00,11.2,17.9,"16:20:32",1
"23/10/26","16:40",0.0,20.9,53.9,1006.7,326.6,1.5,2.5,331.9,0.00,11.3,18.1,"16:33:20",1
"23/10/26","16:50",0.0,20.2,57.4,1006.7,309.3,1.2,2.0,326.1,0.00,11.6,18.1,"16:46:00",1
"23/10/26","17:00",0.0,19.4,60.1,1006.9,287.9,0.7,1.7,305.3,0.00,11.5,18.0,"16:56:40",1
"23/10/26","17:10",0.0,18.8,63.4,1006.9,276.9,1.0,1.7,305.6,0.00,11.8,18.0,"17:08:00",1
"23/10/26","17:20",0.0,18.4,64.9,1006.7,283.0,1.2,3.5,294.9,0.00,11.7,17.8,"17:18:48",1
"23/10/26","17:30",0.0,18.2,65.9,1007.1,303.0,1.3,3.3,340.3,0.00,11.8,17.8,"17:21:28",1
"23/10/26","17:40",0.0,17.8,67.3,1006.9,260.5,1.5,2.2,244.4,0.00,11.7,17.9,"17:35:04",1
"23/10/26","17:50",0.0,17.5,68.5,1007.4,282.6,1.2,2.6,320.6,0.00,11.7,17.9,"17:46:24",1
"23/10/26","18:00",0.0,17.1,69.2,1007.1,280.5,1.1,1.6,257.7,0.00,11.5,17.8,"17:50:08",1
"23/10/26","18:10",0.0,16.9,70.4,1007.6,260.9,1.5,2.7,250.2,0.00,11.5,17.6,"18:07:08",1
"23/10/26","18:20",0.0,16.9,71.0,1007.8,296.9,1.8,2.8,312.7,0.00,11.7,17.6,"18:17:58",1
"23/10/26","18:30",0.0,16.9,71.5,1007.6,321.3,1.8,3.2,313.0,0.00,11.8,17.7,"18:27:12",1
"23/10/26","18:40",0.0,16.7,72.0,1007.6,314.6,1.5,2.8,297.3,0.00,11.7,17.5,"18:33:36",1
"23/10/26","18:50",0.0,16.2,72.8,1007.8,279.9,0.8,1.2,279.8,0.00,11.4,17.6,"18:49:10",1
"23/10/26","19:00",0.0,15.7,74.0,1008.1,280.8,1.1,1.6,255.4,0.00,11.1,17.6,"18:55:20",1
"23/10/26","19:10",0.0,15.5,75.2,1008.1,287.0,0.7,1.6,271.3,0.00,11.2,17.4,"19:01:20",1
"23/10/26","19:20",0.0,15.4,77.2,1008.1,289.3,1.2,1.7,304.9,0.00,11.5,17.4,"19:13:36",1
"23/10/26","19:30",0.0,15.2,78.8,1008.1,289.1,1.0,1.7,269.7,0.00,11.6,17.4,"19:20:40",1
"23/10/26","19:40",0.0,14.9,79.9,1008.1,289.9,1.2,1.8,325.8,0.00,11.5,17.5,"19:34:32",1
"23/10/26","19:50",0.0,14.7,81.1,1008.1,302.6,1.0,1.6,327.7,0.00,11.5,17.2,"19:48:24",1
"23/10/26","20:00",0.0,14.5,81.9,1008.1,291.5,1.2,2.0,327.0,0.00,11.5,17.2,"19:54:56",1
"23/10/26","20:10",0.0,14.2,82.8,1008.1,289.8,1.1,1.8,306.4,0.00,11.4,17.1,"20:03:52",1
"23/10/26","20:20",0.0,14.3,83.8,1008.1,288.9,1.2,2.1,290.9,0.00,11.6,17.1,"20:19:04",1
"23/10/26","20:30",0.0,14.6,84.4,1008.3,279.9,1.3,1.9,270.6,0.00,12.0,17.3,"20:20:32",1
"23/10/26","20:40",0.0,14.6,84.6,1008.3,275.0,1.2,1.8,304.6,0.00,12.1,17.1,"20:35:44",1
"23/10/26","20:50",0.0,14.5,84.8,1008.3,302.7,1.0,1.8,339.6,0.00,12.0,17.0,"20:48:48",1
"23/10/26","21:00",0.0,14.2,84.9,1008.3,286.8,1.1,1.6,269.7,0.00,11.7,16.8,"20:59:36",1
"23/10/26","21:10",0.0,14.0,85.4,1008.1,299.2,1.2,2.1,316.4,0.00,11.6,16.9,"21:06:56",1
"23/10/26","21:20",0.0,13.8,85.8,1008.3,302.8,1.0,2.7,326.8,0.00,11.5,16.9,"21:17:30",1
"23/10/26","21:30",0.0,14.2,86.3,1008.3,302.9,1.8,4.0,327.6,0.00,12.0,16.7,"21:23:14",1
"23/10/26","21:40",0.0,14.0,86.5,1008.6,272.9,1.1,1.8,270.3,0.00,11.8,16.8,"21:30:48",1
"23/10/26","21:50",0.0,13.5,86.6,1008.6,311.0,1.6,2.1,315.6,0.00,11.4,16.7,"21:44:50",1
"23/10/26","22:00",0.0,12.8,86.9,1008.8,297.7,1.5,2.0,317.6,0.00,10.7,16.7,"21:58:54",1
"23/10/26","22:10",0.0,12.5,87.3,1008.6,309.2,1.7,2.1,325.2,0.00,10.5,16.7,"22:06:48",1
"23/10/26","22:20",0.0,12.6,88.1,1008.6,301.5,1.8,2.0,303.6,0.00,10.7,16.6,"22:13:38",1
"23/10/26","22:30",0.0,12.5,88.5,1008.6,290.8,1.3,1.8,311.5,0.00,10.7,16.7,"22:20:32",1
"23/10/26","22:40",0.0,12.5,89.0,1008.6,297.3,1.3,2.0,315.1,0.00,10.8,16.3,"22:33:14",1
"23/10/26","22:50",0.0,12.3,89.6,1008.3,318.1,2.2,2.5,326.2,0.00,10.7,16.6,"22:44:12",1
"23/10/26","23:00",0.0,12.0,90.0,1008.1,310.5,1.8,2.4,321.9,0.00,10.5,16.3,"22:50:08",1
"23/10/26","23:10",0.0,11.7,90.6,1007.6,306.8,1.7,2.1,316.5,0.00,10.3,16.5,"23:07:22",1
"23/10/26","23:20",0.0,11.5,90.8,1008.3,306.9,1.6,2.0,315.8,0.00,10.1,16.4,"23:10:16",1
"23/10/26","23:30",0.0,11.5,91.3,1007.8,317.1,1.5,2.2,319.3,0.00,10.2,16.3,"23:25:58",1
"23/10/26","23:40",0.0,11.6,91.7,1008.1,315.2,2.0,2.5,323.2,0.00,10.3,16.3,"23:38:30",1
"23/10/26","23:50",0.0,11.5,91.9,1008.1,310.9,2.0,2.4,320.8,0.00,10.3,16.1,"23:44:32",1
"23/10/26","24:00",0.0,11.8,92.4,1007.8,314.9,2.0,2.4,319.5,0.00,10.6,16.4,"23:52:50",1
